{"data":{"norad_id":68978,"intl_designator":"2026-099AD","name":"STARLINK-37293","alt_names":[],"object_type":"PAYLOAD","status":"ACTIVE","operator":null,"country":"US","launch_date":"2026-05-01","launch_site_code":"AFETR","launch_vehicle":null,"mission":null,"orbit_class":"UNKNOWN","rcs_meters":null,"size_class":null,"mass_kg":null,"dimensions":null,"purposes":["comms"],"wikipedia_slug":null,"has_3d_model":false,"image_url":null,"decayed_at":null,"tle_current":{"epoch":"2026-09-19T21:04:56.087616Z","epoch_age_seconds":73099,"freshness":"FRESH","line1":"1 68978U 26099AD  26262.87842694  .00023702  00000+0  70999-3 0  9990","line2":"2 68978  53.1598  78.3516 0001321  80.8662 279.2490 15.34418649 21818","mean_motion":15.34418649,"eccentricity":0.0001321,"inclination_deg":53.1598,"raan_deg":78.3516,"arg_perigee_deg":80.8662,"mean_anomaly_deg":279.249,"bstar":0.00070999,"rev_number":2181,"period_min":93.846617475515,"perigee_km":461.74414433673,"apogee_km":463.55147968407,"semimajor_km":6840.7848120104,"source":"CELESTRAK","updated_at":"2026-09-20T09:00:44.057210Z"}}}